Location: La Vergne
(36.0160°N, 86.5820°W)
Time: 23:55:34
(UTC-05:00)

Daily predictions for brighter satellites

Satellite Brightness Start Highest point End
(mag) Time Altitude Azimuth Time Altitude Azimuth Time Altitude Azimuth
NOSS 3-2 (C) 4.4 20:15:22 10° NW 20:23:00 72° WSW 20:31:05 10° SSE
Cosmos 1461 3.1 20:18:56 10° SSW 20:23:37 70° ESE 20:28:12 10° NE
Cosmos 1939 Rocket 4.4 20:22:33 10° ESE 20:25:19 19° ENE 20:28:07 10° NNE
Atlas Centaur 2 2.2 20:22:43 10° SW 20:25:42 25° SSE 20:28:45 10° ESE
Cosmos 1703 Rocket 3.7 20:23:16 10° N 20:27:45 82° W 20:32:14 10° S
Cosmos 2263 Rocket 2.6 20:25:09 10° SSW 20:30:49 71° WNW 20:36:29 10° NNE
FENGYUN 3A 3.8 20:29:17 10° SSE 20:34:41 83° WSW 20:40:07 10° NNW
CENTAUR R/B 3.6 20:28:07 10° NNW 20:35:39 46° NE 20:43:29 10° ESE
SL-8 R/B 3.7 20:34:33 10° SW 20:39:20 68° SE 20:44:07 10° ENE
NOSS 2-2 (D) 3.8 20:37:57 10° S 20:41:47 42° ESE 20:45:59 10° NE
In-Cosmos 22 Rocket 4.4 20:37:07 10° S 20:42:57 90° W 20:48:48 10° N
Coronas F rocket 2.0 20:41:14 10° SSE 20:43:38 31° E 20:46:02 10° NNE
Cosmos 2184 Rocket 4.2 20:39:28 10° SSE 20:45:22 51° E 20:51:19 10° NNE
deb Chang Zheng 4 4.0 20:45:32 10° NNE 20:49:44 43° E 20:53:56 10° S
YAOGAN 11 4.1 20:46:52 10° SSE 20:51:19 78° ENE 20:55:52 10° N
Cosmos 1624 Rocket 4.0 20:51:01 10° S 20:56:09 60° ESE 21:01:22 10° NNE
NOSS 2-2 (C) 3.4 20:52:24 10° SSW 20:56:23 64° ESE 21:00:50 10° NE
Cosmos 1892 2.6 20:54:05 10° S 20:57:52 70° E 21:01:42 10° NNE
H-2A R/B 4.1 20:54:30 10° SSW 20:57:57 38° W 21:01:26 10° NNW
Envisat 3.4 20:53:57 12° SE 20:58:24 47° ENE 21:03:16 10° N
SL-08 ROCKET BODY 4.5 20:52:38 10° S 20:58:35 59° E 21:04:27 10° NNE
Meteor 2-10 Rocket 3.8 20:53:28 10° N 20:59:14 63° E 21:04:46 11° SSE
USA 186 3.5 20:56:51 10° SSW 20:59:29 30° W 21:02:16 10° NNW
Cosmos 2181 Rocket 4.5 20:53:40 10° NNW 21:00:04 67° W 21:06:22 10° S
Cosmos 1733 Rocket 3.1 20:57:47 10° S 21:02:08 61° E 21:06:29 10° NNE
Cosmos 724 4.4 20:57:15 10° NNW 21:03:27 89° WSW 21:08:56 14° SSE
ERBS 3.7 21:12:00 10° NNW 21:15:04 28° NE 21:16:36 20° E
NOSS 2-2 (E) 3.8 21:11:33 10° SW 21:15:37 70° WNW 21:20:17 10° NNE
Cosmos 407 Rocket 4.3 21:14:24 10° N 21:19:16 36° ENE 21:21:52 23° ESE
Cosmos 1452 Rocket 4.1 21:16:33 17° SSE 21:20:01 36° E 21:24:48 10° NE
Cosmos 2074 Rocket 4.2 21:14:40 10° S 21:20:57 76° W 21:27:14 10° N
Cosmos 1238 Rocket 4.1 21:19:56 10° NE 21:21:59 18° ENE 21:21:59 18° ENE
SPOT 5 3.2 21:19:21 21° SSE 21:22:47 60° ENE 21:28:02 10° N
Nimbus 7 Rocket 4.4 21:18:56 10° NNE 21:24:53 85° ESE 21:30:52 10° SSW
H-2A R/B 2.1 21:24:05 19° SSE 21:27:11 85° WSW 21:31:30 10° NNW
ERS-1 Rocket 3.5 21:22:19 10° S 21:27:15 56° W 21:32:13 10° NNW
COSMOS 2406 3.2 21:21:46 10° NNW 21:27:32 74° ENE 21:30:59 25° SSE
Cosmos 1356 Rocket 4.5 21:24:35 10° SSW 21:28:37 47° WNW 21:32:45 10° N
EO 1 Delta rocket 4.2 21:22:32 10° N 21:28:58 82° E 21:34:05 10° S
Cosmos 1610 Rocket 4.4 21:23:11 10° S 21:29:18 85° E 21:35:32 10° N
PSLV R/B 3.4 21:29:27 43° E 21:29:43 45° ENE 21:32:34 10° N
Cosmos 1190 Rocket 4.1 21:24:49 10° N 21:29:57 57° ENE 21:32:30 28° SE
MetOp-B 4.3 21:28:34 25° SE 21:31:35 59° ENE 21:36:51 10° N
Meteor 1-10 Rocket 4.3 21:27:02 10° N 21:32:54 89° W 21:37:11 19° S
Cosmos 1862 3.6 21:33:23 35° SE 21:34:38 48° E 21:38:34 10° NNE
Nadezhda 3 Rocket 4.1 21:32:05 10° N 21:38:22 58° E 21:41:45 28° SSE
Terra 3.7 21:37:59 15° ENE 21:38:46 15° ENE 21:41:29 10° NNE
ARGOS 3.7 21:38:34 29° ESE 21:40:37 42° ENE 21:45:38 10° N
Okean 2 Rocket 3.7 21:42:45 34° E 21:43:04 34° E 21:47:05 10° NNE
ATLAS 5 CENTAUR R/B 2.4 21:37:27 10° NNW 21:43:36 86° ENE 21:46:55 31° SSE
PSLV R/B 3.8 21:42:29 10° WNW 21:45:54 55° NNE 21:46:43 42° ENE
Cosmos 2278 Rocket 2.4 21:43:31 27° SSE 21:46:14 48° ESE 21:51:40 10° NNE
Sich 1 Rocket 3.8 21:42:39 15° SSW 21:46:27 73° W 21:51:02 10° N
Cosmos 1844 3.6 21:42:51 10° SSW 21:48:35 80° ESE 21:54:23 10° NNE
Abrixas rocket 2.9 21:46:27 10° WNW 21:49:42 42° SW 21:49:51 42° SSW
Cosmos 2341 Rocket 4.0 21:46:29 23° S 21:50:37 69° E 21:56:52 10° NNE
USA 234 3.2 21:45:01 10° NE 21:51:30 64° SE 21:57:56 10° SSW
CZ-4B R/B 3.3 21:47:51 10° NNE 21:52:49 69° ESE 21:54:54 34° S
Cosmos 1825 2.0 21:54:31 62° SSE 21:55:02 77° E 21:58:52 10° N
Cosmos 676 Rocket 4.0 21:54:30 10° N 21:59:40 64° ENE 22:01:02 46° SE
Cosmos 1674 Rocket 4.4 21:55:23 10° NNW 21:59:41 47° W 22:02:00 24° SSW
Cosmos 1844 Rocket 3.2 21:54:17 10° SW 21:59:51 60° WNW 22:05:27 10° NNE
Cosmos 1184 Rocket 3.4 22:04:00 48° NNE 22:04:00 48° NNE 22:06:33 10° NNE
Meteor 1-27 Rocket 3.7 21:58:46 10° N 22:04:21 81° W 22:06:42 36° S
Cosmos 1782 4.2 22:03:08 10° NNW 22:06:48 35° W 22:08:36 23° SW
Cosmos 1954 Rocket 4.1 22:02:15 10° N 22:07:23 57° ENE 22:08:21 49° ESE
Cosmos 2082 Rocket 3.9 22:04:15 10° N 22:08:17 19° NE 22:09:37 18° ENE
Cosmos 1782 Rocket 3.5 22:07:22 56° S 22:08:19 87° E 22:12:48 10° N
Atlas Centaur 2 2.9 22:10:35 10° WSW 22:12:00 21° SW 22:12:00 21° SW
COSMOS 2487 3.6 22:11:05 10° N 22:13:44 37° NNE 22:13:44 37° NNE
YAOGAN 6 3.4 22:14:37 42° WSW 22:14:48 42° W 22:18:10 10° NNW
Cosmos 1408 3.2 22:15:26 49° WSW 22:15:52 52° W 22:19:28 10° N
SL-27 R/B 3.8 22:12:42 10° NW 22:16:03 34° WSW 22:16:20 33° WSW
Cosmos 2297 4.2 22:16:57 42° E 22:16:57 42° E 22:21:53 10° NE
SL-8 Rocket 3.9 22:17:09 46° SSE 22:19:00 68° E 22:25:14 10° NNE
CZ-4 R/B 3.7 22:15:52 10° N 22:20:35 83° WNW 22:21:34 56° SSW
Meteor 2-13 Rocket 4.4 22:19:37 38° S 22:22:10 90° WNW 22:28:22 10° N
SL-08 RB Rocket 3.6 22:24:57 75° SSW 22:25:18 83° WSW 22:29:56 10° NNW
CENTAUR R/B 3.9 22:19:00 10° NW 22:26:24 42° WSW 22:30:41 25° SSW
CARTOSAT-1 4.2 22:27:44 44° NE 22:27:44 44° NE 22:31:18 10° N
Cosmos 1975 Rocket 3.0 22:23:05 10° N 22:27:24 79° W 22:27:24 79° W
Cosmos 1606 4.2 22:25:20 10° NNW 22:28:50 32° W 22:29:28 30° WSW
NOAA 11 4.3 22:28:50 49° SSW 22:30:13 68° WSW 22:35:43 10° NNW
FALCON 9 R/B 4.4 22:02:13 10° WNW 22:33:00 44° SW 22:37:43 31° S
Okean 3 4.0 22:29:54 10° NNW 22:34:04 52° W 22:34:14 51° WSW
H-2A R/B 2.0 22:36:42 70° ESE 22:37:07 74° ENE 22:42:29 10° N
Cosmos 1242 Rocket 3.7 22:34:58 10° N 22:37:28 41° NNW 22:37:28 41° NNW
Cosmos 1023 Rocket 4.3 22:40:42 10° NNW 22:45:41 85° NNE 22:45:41 85° NNE
Cosmos 1420 Rocket 4.3 22:46:17 49° SW 22:47:28 64° WNW 22:52:40 10° N
Cosmos 2151 Rocket 4.1 22:49:00 55° NNE 22:49:00 55° NNE 22:52:34 10° N
Cosmos 864 Rocket 4.3 22:51:04 73° SSE 22:51:41 84° E 22:57:50 10° N
Meteor 2-8 Rocket 4.4 22:45:36 10° N 22:51:43 63° E 22:51:55 63° E
Meteor 1-25 Rocket 4.3 22:56:05 70° ENE 22:56:05 70° ENE 23:01:39 10° NNE
Cosmos 2366 rocket 3.9 22:56:08 65° SSW 22:57:07 83° W 23:03:27 10° N
CZ-3C R/B 4.2 22:48:57 10° WSW 22:55:54 18° SSW 22:55:54 18° SSW
Cosmos 489 Rocket 4.5 22:52:12 10° NNW 22:58:22 67° WSW 22:59:03 62° SW
Landsat 7 4.4 23:00:35 50° W 23:00:35 50° W 23:04:56 10° NNW
Meteor 1-18 Rocket 4.3 22:58:23 10° N 23:04:09 75° ENE 23:04:09 75° ENE
Spot 4 4.4 23:13:28 58° NW 23:13:28 58° NW 23:17:27 10° NNW
ASTEX 1 4.0 23:08:40 10° N 23:12:25 53° NNE 23:12:25 53° NNE
Terra 2.7 23:16:52 45° WNW 23:16:52 45° WNW 23:20:42 10° NNW
Cosmos 614 Rocket 4.4 23:12:15 10° NNW 23:16:24 57° NW 23:16:24 57° NW
Cosmos 1140 Rocket 4.3 23:13:19 10° NNW 23:17:37 42° W 23:17:37 42° W
BREEZE-M DEB (TANK) 4.5 23:07:50 10° WNW 23:27:49 77° SW 23:28:32 71° S
BREEZE-M DEB (TANK) 4.2 23:22:08 10° NW 23:26:27 33° WNW 23:26:27 33° WNW
Cosmos 2278 Rocket 4.3 23:26:12 10° WSW 23:30:33 22° WNW 23:34:55 10° N
Cosmos 1833 Rocket 3.1 23:34:28 10° NNW 23:39:00 59° NNW 23:39:00 59° NNW
Cosmos 1727 Rocket 4.5 23:34:14 10° NNW 23:40:09 49° W 23:40:11 49° W
Cosmos 2082 Rocket 3.0 23:47:10 10° NNW 23:51:28 46° WNW 23:51:28 46° WNW
